DW5678 Kavala GR current weather conditions

sailwx.info

Wind from 346 at 0 knots gusting 4

Air temperature 7.2° C
Dewpoint 5.5° C

Last reported at 2017-Feb-20 03:15 UTC.
Time now 2017-Feb-20 04:47 UTC

Location: N 40°56' E 024°24'.
View on Google Maps.

See reports from other nearby stations

  
Tides and Currents Weather Stations Pressure Air Temp Water Temp Dewpoint Dewpoint Depression Visibility Wind Speed Wind Dir Waves Ship Positions
date/time (UTC)wind fromknots sea level pressurealtimeterstation pressurevisibilityair tempwater tempwave heightnotes
2017-Feb-20 03:15 346 0 gusting 4 7.2
2017-Feb-20 03:00 288 7.2
2017-Feb-20 02:45 002 2 gusting 8 7.2
2017-Feb-20 02:30 348 2 gusting 8 7.2
2017-Feb-20 02:00 009 4 gusting 12 7.2
2017-Feb-20 01:45 353 3 gusting 8 7.2
2017-Feb-20 01:30 339 4 gusting 8 7.8
2017-Feb-20 01:15 010 0 gusting 8 7.8
2017-Feb-20 01:00 003 7.8
2017-Feb-20 00:30 332 1 gusting 4 7.8
2017-Feb-20 00:15 045 7.8
2017-Feb-20 00:00 045 7.2
2017-Feb-19 23:45 045 7.2
2017-Feb-19 23:30 045 7.2
2017-Feb-19 23:15 045 7.8
2017-Feb-19 23:00 045 7.8
2017-Feb-19 22:30 045 1 gusting 2 7.8
2017-Feb-19 22:00 232 7.8
2017-Feb-19 21:00 224 8.3
2017-Feb-19 20:30 322 8.3
2017-Feb-19 20:00 337 2 gusting 6 8.3
2017-Feb-19 19:45 053 8.3
2017-Feb-19 19:15 250 1 gusting 2 8.9
2017-Feb-19 19:00 212 0 gusting 1 8.9
2017-Feb-19 18:45 247 8.9
2017-Feb-19 18:30 247 8.9
2017-Feb-19 18:15 283 8.9
2017-Feb-19 18:00 074 8.9
2017-Feb-19 17:45 306 0 gusting 4 8.9
2017-Feb-19 17:30 011 8.9
2017-Feb-19 17:15 046 8.9
2017-Feb-19 16:45 046 8.9
2017-Feb-19 16:15 046 9.4
2017-Feb-19 15:15 046 9.4
2017-Feb-19 14:45 046 9.4
2017-Feb-19 14:30 046 9.4
2017-Feb-19 14:15 146 9.4
2017-Feb-19 14:00 147 9.4
2017-Feb-19 13:45 147 9.4
2017-Feb-19 13:15 275 10.0
2017-Feb-19 12:45 275 10.0
2017-Feb-19 12:15 275 9.4
2017-Feb-19 11:00 245 0 gusting 5 8.9
2017-Feb-19 10:45 261 0 gusting 4 8.9
2017-Feb-19 10:30 281 8.9
2017-Feb-19 10:00 250 0 gusting 2 8.9
2017-Feb-19 09:45 265 1 gusting 4 9.4
2017-Feb-19 08:45 270 8.9
2017-Feb-19 08:15 267 8.3
2017-Feb-19 08:00 283 0 gusting 1 7.8
2017-Feb-19 07:45 050 7.8
2017-Feb-19 07:30 308 7.8
2017-Feb-19 07:15 308 7.8
2017-Feb-19 07:00 308 7.2
2017-Feb-19 06:45 290 0 gusting 2 7.2
2017-Feb-19 06:00 042 7.8
2017-Feb-19 05:45 123 7.8
2017-Feb-19 05:30 035 2 gusting 5 7.2
2017-Feb-19 05:00 040 7.2
2017-Feb-19 04:45 040 7.2
2017-Feb-19 04:15 040 7.2
2017-Feb-19 04:00 040 7.2
2017-Feb-19 03:30 051 0 gusting 4 7.2
2017-Feb-19 03:15 048 0 gusting 1 7.2
2017-Feb-19 03:00 329 7.2
2017-Feb-19 02:30 292 7.2
2017-Feb-19 02:00 292 7.2
2017-Feb-19 01:45 292 7.2
2017-Feb-19 01:30 292 7.2
2017-Feb-19 01:00 292 7.2
2017-Feb-19 00:45 292 7.2
2017-Feb-19 00:00 292 7.8
2017-Feb-18 23:30 292 7.8
2017-Feb-18 23:00 088 7.8
2017-Feb-18 22:00 350 8.9
2017-Feb-18 21:45 234 8.9
2017-Feb-18 21:00 234 8.3
2017-Feb-18 20:45 234 8.3
2017-Feb-18 20:30 234 8.3
2017-Feb-18 20:15 234 8.9
2017-Feb-18 19:45 234 8.9
2017-Feb-18 19:30 234 8.3
2017-Feb-18 19:15 234 8.3
2017-Feb-18 18:30 234 8.3
2017-Feb-18 18:15 234 8.3
2017-Feb-18 18:00 234 8.3
2017-Feb-18 17:45 234 8.3
2017-Feb-18 17:15 234 8.3
2017-Feb-18 16:45 234 8.9
2017-Feb-18 16:15 234 9.4
2017-Feb-18 16:00 234 9.4
2017-Feb-18 15:30 234 9.4
2017-Feb-18 15:15 234 9.4
2017-Feb-18 14:45 235 9.4
2017-Feb-18 14:30 234 9.4
2017-Feb-18 14:00 203 10.0
2017-Feb-18 13:30 165 0 gusting 5 10.0
2017-Feb-18 13:00 180 10.0
2017-Feb-18 12:45 192 9.4
2017-Feb-18 12:15 212 10.6
2017-Feb-18 12:00 214 10.0
2017-Feb-18 11:45 210 9.4
2017-Feb-18 11:15 211 8.9
2017-Feb-18 11:00 211 8.9
2017-Feb-18 10:30 212 8.3
2017-Feb-18 10:00 212 8.3
2017-Feb-18 09:45 220 0 gusting 6 8.9
2017-Feb-18 09:30 142 0 gusting 1 9.4
2017-Feb-18 09:15 142 8.3
2017-Feb-18 08:45 171 1 gusting 4 7.8
2017-Feb-18 08:15 023 7.2
2017-Feb-18 07:45 023 7.2
2017-Feb-18 07:30 023 6.7
2017-Feb-18 07:15 023 7.2
2017-Feb-18 06:30 023 6.1
2017-Feb-18 06:15 023 6.7
2017-Feb-18 06:00 023 6.1
2017-Feb-18 05:30 023 5.6
2017-Feb-18 05:15 023 5.6
2017-Feb-18 05:00 023 5.6
2017-Feb-18 04:45 022 5.6
2017-Feb-18 04:30 144 5.0
2017-Feb-18 04:15 348 5.0
2017-Feb-18 04:00 348 5.0